Broomfield, CO

4:20 AM MST on December 15, 2017 (GMT -0700)
Jeffco

Weather History for KBJC - May, 2013

Change the Weather History Date:

Saturday, May 11, 2013

  Actual Average Record
Temperature  
Mean Temperature 56 °F -  
Max Temperature 66 °F 66 °F 83 °F (1991)
Min Temperature 46 °F 43 °F 15 °F (1990)
Degree Days  
Heating Degree Days 9    
Growing Degree Days 6 (Base 50)    
Moisture  
Dew Point 34 °F    
Average Humidity 49    
Maximum Humidity 66    
Minimum Humidity 28    
Precipitation  
Precipitation 0.00 in - - ()
Sea Level Pressure  
Sea Level Pressure 30.37 in    
Wind  
Wind Speed 10 mph (WNW)    
Max Wind Speed 23 mph    
Max Gust Speed 31 mph    
Visibility 10 miles    
Events Rain , Thunderstorm    
Averages and records for this station are not official NWS values.
T = Trace of Precipitation, MM = Missing Value Source: NWS Daily Summary

Daily Weather History Graph

Daily Weather History Graph

Search for Another Location

Airport or City:

Trip Planner

Search our weather history database for the weather conditions in past years. The results will help you decide how hot, cold, wet, or windy it might be!

Date:

Astronomy

May. 11, 2013 Rise Set
Actual Time 5:49 AM MDT 8:05 PM MDT
Civil Twilight 5:18 AM MDT 8:35 PM MDT
Nautical Twilight 4:41 AM MDT 9:12 PM MDT
Astronomical Twilight 4:00 AM MDT 9:54 PM MDT
Moon 6:58 AM MDT (5/11) 9:47 PM MDT (5/11)
Length of Visible Light 15h 16m
Length of Day
14h 16m
Waxing Crescent, 3% of the Moon is Illuminated
May 11
Waxing Crescent
May 17
First Quarter
May 24
Full
May 31
Last Quarter
Jun 8
New

Hourly Weather History & Observations

Time (MDT) Temp. Windchill Dew Point Humidity Pressure Visibility Wind Dir Wind Speed Gust Speed Precip Events Conditions
12:15 AM 51.8 °F - 32.0 °F 47% 30.36 in 10.0 mi NNW 11.5 mph - N/A   Clear
12:35 AM 51.8 °F - 32.0 °F 47% 30.36 in 10.0 mi North 16.1 mph 20.7 mph N/A   Clear
12:54 AM 50.0 °F - 33.8 °F 54% 30.38 in 10.0 mi North 18.4 mph - N/A   Clear
1:15 AM 50.0 °F - 33.8 °F 54% 30.39 in 10.0 mi NNW 15.0 mph - N/A   Clear
1:35 AM 50.0 °F - 33.8 °F 54% 30.40 in 10.0 mi NNW 16.1 mph - N/A   Clear
1:55 AM 50.0 °F - 33.8 °F 54% 30.41 in 10.0 mi NNW 15.0 mph - N/A   Scattered Clouds
2:15 AM 50.0 °F - 33.8 °F 54% 30.41 in 10.0 mi NW 11.5 mph - N/A   Mostly Cloudy
2:35 AM 50.0 °F - 33.8 °F 54% 30.41 in 10.0 mi NNW 10.4 mph - N/A   Overcast
2:55 AM 51.8 °F - 33.8 °F 50% 30.41 in 10.0 mi NNW 11.5 mph - N/A   Overcast
3:15 AM 51.8 °F - 33.8 °F 50% 30.42 in 10.0 mi NW 9.2 mph - N/A   Overcast
3:35 AM 50.0 °F - 35.6 °F 58% 30.42 in 10.0 mi NW 6.9 mph - N/A   Overcast
3:54 AM 50.0 °F - 35.6 °F 58% 30.42 in 10.0 mi NNW 6.9 mph - N/A   Overcast
4:14 AM 50.0 °F - 33.8 °F 54% 30.41 in 10.0 mi NW 6.9 mph - N/A   Scattered Clouds
4:35 AM 46.4 °F 41.9 °F 33.8 °F 62% 30.41 in 10.0 mi WNW 9.2 mph - N/A   Clear
4:55 AM 48.2 °F - 33.8 °F 58% 30.41 in 10.0 mi NNW 4.6 mph - N/A   Clear
5:14 AM 50.0 °F - 33.8 °F 54% 30.41 in 10.0 mi NNW 3.5 mph - N/A   Clear
5:34 AM 50.0 °F - 32.0 °F 50% 30.41 in 10.0 mi NNE 3.5 mph - N/A   Clear
5:48 AM 50.0 °F - 33.8 °F 54% 30.41 in 35.0 mi Calm Calm - N/A   Scattered Clouds
5:54 AM 50.0 °F - 33.8 °F 54% 30.41 in 10.0 mi Calm Calm - N/A   Clear
6:55 AM 46.4 °F - 35.6 °F 66% 30.43 in 40.0 mi Calm Calm - N/A   Scattered Clouds
7:47 AM 51.8 °F - 37.4 °F 58% 30.43 in 40.0 mi Variable 5.8 mph - N/A   Partly Cloudy
8:47 AM 53.6 °F - 37.4 °F 54% 30.43 in 40.0 mi Variable 5.8 mph - N/A   Scattered Clouds
9:47 AM 55.4 °F - 37.4 °F 51% 30.42 in 40.0 mi East 6.9 mph - N/A   Scattered Clouds
10:47 AM 59.0 °F - 35.6 °F 42% 30.40 in 40.0 mi ESE 6.9 mph - N/A   Scattered Clouds
11:47 AM 62.6 °F - 35.6 °F 37% 30.38 in 40.0 mi SE 6.9 mph - N/A   Scattered Clouds
12:47 PM 64.4 °F - 35.6 °F 34% 30.36 in 40.0 mi Calm Calm - N/A   Scattered Clouds
1:54 PM 64.4 °F - 32.0 °F 30% 30.34 in 40.0 mi East 5.8 mph - N/A   Mostly Cloudy
2:57 PM 66.2 °F - 32.0 °F 28% 30.32 in 30.0 mi North 3.5 mph - N/A   Mostly Cloudy
3:45 PM 62.6 °F - 32.0 °F 32% 30.29 in 30.0 mi SSW 3.5 mph - N/A   Mostly Cloudy
4:30 PM 64.4 °F - 32.0 °F 30% 30.31 in 30.0 mi SW 8.1 mph - N/A Thunderstorm Thunderstorm
4:47 PM 62.6 °F - 32.0 °F 32% 30.32 in 30.0 mi SW 23.0 mph 31.1 mph N/A Rain , Thunderstorm Light Thunderstorms and Rain
5:05 PM 62.6 °F - 33.8 °F 34% 30.29 in 30.0 mi SW 10.4 mph 23.0 mph N/A   Mostly Cloudy
5:49 PM 60.8 °F - 35.6 °F 39% 30.29 in 30.0 mi SSW 5.8 mph - N/A   Mostly Cloudy
6:47 PM 60.8 °F - 35.6 °F 39% 30.28 in 45.0 mi SSW 5.8 mph - N/A   Mostly Cloudy
7:45 PM 59.0 °F - 37.4 °F 45% 30.29 in 30.0 mi WSW 3.5 mph - N/A   Scattered Clouds
8:47 PM 55.4 °F - 41.0 °F 58% 30.29 in 30.0 mi SW 3.5 mph - N/A   Scattered Clouds
9:48 PM 51.8 °F - 37.4 °F 58% 30.28 in 25.0 mi WSW 6.9 mph - N/A   Partly Cloudy
11:15 PM 50.0 °F - 33.8 °F 54% 30.27 in 10.0 mi SW 6.9 mph - N/A   Clear
11:35 PM 50.0 °F - 35.6 °F 58% 30.26 in 10.0 mi SW 5.8 mph - N/A   Clear
11:55 PM 50.0 °F - 33.8 °F 54% 30.26 in 10.0 mi SSW 3.5 mph - N/A   Clear